iso_date,epoch_date,Year,Hour,Min,DOY,POS_DOY,Lat,Lon,BP,Ts,Ta,has_bp,has_ts,has_ta,BuoyID,Buoy_Type,Buoy_Owner,Logistics,Hemisphere
2018-01-04T15:00:00Z,1515078000,2018,15,0,4.625,4.625,-74.4616,-140.0262,978.7,-0.41,-999.0,yes,yes,no,300234064820320,BD2GI,AOML,Palmer,South
2018-01-04T16:00:28Z,1515081629,2018,16,0,4.667,4.667,-74.459,-140.0376,979.0,-0.36,-999.0,yes,yes,no,300234064820320,BD2GI,AOML,Palmer,South
2018-01-04T16:59:31Z,1515085171,2018,17,0,4.708,4.708,-74.456,-140.0454,979.2,-0.35,-999.0,yes,yes,no,300234064820320,BD2GI,AOML,Palmer,South
2018-01-04T18:00:00Z,1515088800,2018,18,0,4.75,4.75,-74.453,-140.0536,979.9,-0.35,-999.0,yes,yes,no,300234064820320,BD2GI,AOML,Palmer,South
2018-01-04T19:00:28Z,1515092429,2018,19,0,4.792,4.792,-74.4512,-140.0586,980.7,-0.35,-999.0,yes,yes,no,300234064820320,BD2GI,AOML,Palmer,South
2018-01-04T19:59:31Z,1515095971,2018,20,0,4.833,4.833,-74.449,-140.0672,981.5,-0.34,-999.0,yes,yes,no,300234064820320,BD2GI,AOML,Palmer,South
2018-01-04T21:00:00Z,1515099600,2018,21,0,4.875,4.875,-74.4482,-140.1172,982.3,-1.67,-999.0,yes,yes,no,300234064820320,BD2GI,AOML,Palmer,South
2018-01-04T22:00:28Z,1515103229,2018,22,0,4.917,4.917,-74.4458,-140.1732,983.1,-0.69,-999.0,yes,yes,no,300234064820320,BD2GI,AOML,Palmer,South
2018-01-04T22:59:31Z,1515106771,2018,23,0,4.958,4.958,-74.4434,-140.2462,983.7,-0.48,-999.0,yes,yes,no,300234064820320,BD2GI,AOML,Palmer,South
2018-01-05T00:00:00Z,1515110400,2018,0,0,5.0,5.0,-74.4482,-140.3022,984.4,-1.04,-999.0,yes,yes,no,300234064820320,BD2GI,AOML,Palmer,South
2018-01-05T01:00:28Z,1515114029,2018,1,0,5.042,5.042,-74.4546,-140.3542,985.0,-1.51,-999.0,yes,yes,no,300234064820320,BD2GI,AOML,Palmer,South
2018-01-05T01:59:31Z,1515117571,2018,2,0,5.083,5.083,-74.4612,-140.388,985.7,-0.9,-999.0,yes,yes,no,300234064820320,BD2GI,AOML,Palmer,South
2018-01-05T03:00:00Z,1515121200,2018,3,0,5.125,5.125,-74.4692,-140.4286,986.3,-0.83,-999.0,yes,yes,no,300234064820320,BD2GI,AOML,Palmer,South
2018-01-05T04:00:28Z,1515124829,2018,4,0,5.167,5.167,-74.4728,-140.46,986.8,-0.98,-999.0,yes,yes,no,300234064820320,BD2GI,AOML,Palmer,South
2018-01-05T04:59:31Z,1515128371,2018,5,0,5.208,5.208,-74.4724,-140.4734,987.7,-0.83,-999.0,yes,yes,no,300234064820320,BD2GI,AOML,Palmer,South
2018-01-05T06:00:00Z,1515132000,2018,6,0,5.25,5.25,-74.4698,-140.4912,988.1,-1.07,-999.0,yes,yes,no,300234064820320,BD2GI,AOML,Palmer,South
2018-01-05T07:00:28Z,1515135629,2018,7,0,5.292,5.292,-74.4684,-140.5102,988.5,-0.75,-999.0,yes,yes,no,300234064820320,BD2GI,AOML,Palmer,South
2018-01-05T07:59:31Z,1515139171,2018,8,0,5.333,5.333,-74.4666,-140.538,989.0,-0.72,-999.0,yes,yes,no,300234064820320,BD2GI,AOML,Palmer,South
2018-01-05T09:00:00Z,1515142800,2018,9,0,5.375,5.375,-74.4632,-140.5728,989.4,-0.88,-999.0,yes,yes,no,300234064820320,BD2GI,AOML,Palmer,South
2018-01-05T10:00:28Z,1515146429,2018,10,0,5.417,5.417,-74.4608,-140.6008,989.7,-1.14,-999.0,yes,yes,no,300234064820320,BD2GI,AOML,Palmer,South
2018-01-05T10:59:31Z,1515149971,2018,11,0,5.458,5.458,-74.4618,-140.6268,990.4,-1.18,-999.0,yes,yes,no,300234064820320,BD2GI,AOML,Palmer,South
2018-01-05T12:00:00Z,1515153600,2018,12,0,5.5,5.5,-74.4644,-140.651,990.6,-1.04,-999.0,yes,yes,no,300234064820320,BD2GI,AOML,Palmer,South
2018-01-05T13:00:28Z,1515157229,2018,13,0,5.542,5.542,-74.4684,-140.6666,990.9,-1.42,-999.0,yes,yes,no,300234064820320,BD2GI,AOML,Palmer,South
2018-01-05T13:59:31Z,1515160771,2018,14,0,5.583,5.583,-74.4712,-140.6696,991.1,-1.56,-999.0,yes,yes,no,300234064820320,BD2GI,AOML,Palmer,South
2018-01-05T15:00:00Z,1515164400,2018,15,0,5.625,5.625,-74.472,-140.6692,991.2,-0.78,-999.0,yes,yes,no,300234064820320,BD2GI,AOML,Palmer,South
2018-01-05T16:00:28Z,1515168029,2018,16,0,5.667,5.667,-74.4706,-140.665,991.1,-0.66,-999.0,yes,yes,no,300234064820320,BD2GI,AOML,Palmer,South
2018-01-05T16:59:31Z,1515171571,2018,17,0,5.708,5.708,-74.4682,-140.6598,991.3,-0.72,-999.0,yes,yes,no,300234064820320,BD2GI,AOML,Palmer,South
2018-01-05T18:00:00Z,1515175200,2018,18,0,5.75,5.75,-74.4644,-140.6568,990.9,-0.62,-999.0,yes,yes,no,300234064820320,BD2GI,AOML,Palmer,South
2018-01-05T19:00:28Z,1515178829,2018,19,0,5.792,5.792,-74.4616,-140.6614,990.8,-0.24,-999.0,yes,yes,no,300234064820320,BD2GI,AOML,Palmer,South
2018-01-05T19:59:31Z,1515182371,2018,20,0,5.833,5.833,-74.458,-140.6724,990.7,-0.5,-999.0,yes,yes,no,300234064820320,BD2GI,AOML,Palmer,South
2018-01-05T21:00:00Z,1515186000,2018,21,0,5.875,5.875,-74.4558,-140.6858,990.5,-0.49,-999.0,yes,yes,no,300234064820320,BD2GI,AOML,Palmer,South
2018-01-05T22:00:28Z,1515189629,2018,22,0,5.917,5.917,-74.4548,-140.7016,990.2,0.08,-999.0,yes,yes,no,300234064820320,BD2GI,AOML,Palmer,South
2018-01-05T22:59:31Z,1515193171,2018,23,0,5.958,5.958,-74.4546,-140.7134,990.0,0.01,-999.0,yes,yes,no,300234064820320,BD2GI,AOML,Palmer,South
2018-01-06T00:00:00Z,1515196800,2018,0,0,6.0,6.0,-74.4558,-140.7192,989.7,0.47,-999.0,yes,yes,no,300234064820320,BD2GI,AOML,Palmer,South
2018-01-06T01:00:28Z,1515200429,2018,1,0,6.042,6.042,-74.4574,-140.7188,989.1,0.66,-999.0,yes,yes,no,300234064820320,BD2GI,AOML,Palmer,South
2018-01-06T01:59:31Z,1515203971,2018,2,0,6.083,6.083,-74.4588,-140.7184,988.3,0.74,-999.0,yes,yes,no,300234064820320,BD2GI,AOML,Palmer,South
2018-01-06T03:00:00Z,1515207600,2018,3,0,6.125,6.125,-74.461,-140.7178,987.7,0.64,-999.0,yes,yes,no,300234064820320,BD2GI,AOML,Palmer,South
2018-01-06T04:00:28Z,1515211229,2018,4,0,6.167,6.167,-74.4624,-140.7138,987.1,0.24,-999.0,yes,yes,no,300234064820320,BD2GI,AOML,Palmer,South
2018-01-06T04:59:31Z,1515214771,2018,5,0,6.208,6.208,-74.4632,-140.7104,986.5,0.56,-999.0,yes,yes,no,300234064820320,BD2GI,AOML,Palmer,South
2018-01-06T06:00:00Z,1515218400,2018,6,0,6.25,6.25,-74.4644,-140.7076,985.9,0.14,-999.0,yes,yes,no,300234064820320,BD2GI,AOML,Palmer,South
2018-01-06T07:00:28Z,1515222029,2018,7,0,6.292,6.292,-74.4646,-140.7092,985.1,0.46,-999.0,yes,yes,no,300234064820320,BD2GI,AOML,Palmer,South
2018-01-06T07:59:31Z,1515225571,2018,8,0,6.333,6.333,-74.4646,-140.7146,984.3,0.04,-999.0,yes,yes,no,300234064820320,BD2GI,AOML,Palmer,South
2018-01-06T09:00:00Z,1515229200,2018,9,0,6.375,6.375,-74.4644,-140.722,983.9,-0.01,-999.0,yes,yes,no,300234064820320,BD2GI,AOML,Palmer,South
2018-01-06T10:00:28Z,1515232829,2018,10,0,6.417,6.417,-74.4648,-140.7328,983.2,-0.24,-999.0,yes,yes,no,300234064820320,BD2GI,AOML,Palmer,South
2018-01-06T10:59:31Z,1515236371,2018,11,0,6.458,6.458,-74.466,-140.7426,982.3,-0.36,-999.0,yes,yes,no,300234064820320,BD2GI,AOML,Palmer,South
2018-01-06T12:00:00Z,1515240000,2018,12,0,6.5,6.5,-74.4672,-140.7496,981.4,-0.4,-999.0,yes,yes,no,300234064820320,BD2GI,AOML,Palmer,South
2018-01-06T13:00:28Z,1515243629,2018,13,0,6.542,6.542,-74.4686,-140.7554,980.4,-0.35,-999.0,yes,yes,no,300234064820320,BD2GI,AOML,Palmer,South
2018-01-06T13:59:31Z,1515247171,2018,14,0,6.583,6.583,-74.4704,-140.7616,979.4,-0.39,-999.0,yes,yes,no,300234064820320,BD2GI,AOML,Palmer,South
2018-01-06T15:00:00Z,1515250800,2018,15,0,6.625,6.625,-74.4718,-140.7662,979.0,-0.42,-999.0,yes,yes,no,300234064820320,BD2GI,AOML,Palmer,South
2018-01-06T16:00:28Z,1515254429,2018,16,0,6.667,6.667,-74.4748,-140.7726,978.3,-0.46,-999.0,yes,yes,no,300234064820320,BD2GI,AOML,Palmer,South
2018-01-06T16:59:31Z,1515257971,2018,17,0,6.708,6.708,-74.4786,-140.7768,977.8,-0.47,-999.0,yes,yes,no,300234064820320,BD2GI,AOML,Palmer,South
2018-01-06T18:00:00Z,1515261600,2018,18,0,6.75,6.75,-74.4832,-140.7788,977.3,-0.48,-999.0,yes,yes,no,300234064820320,BD2GI,AOML,Palmer,South
2018-01-06T19:00:28Z,1515265229,2018,19,0,6.792,6.792,-74.4872,-140.7782,976.8,-0.49,-999.0,yes,yes,no,300234064820320,BD2GI,AOML,Palmer,South
2018-01-06T19:59:31Z,1515268771,2018,20,0,6.833,6.833,-74.49,-140.7702,976.7,-0.5,-999.0,yes,yes,no,300234064820320,BD2GI,AOML,Palmer,South
2018-01-06T21:00:00Z,1515272400,2018,21,0,6.875,6.875,-74.4916,-140.7602,976.4,-0.5,-999.0,yes,yes,no,300234064820320,BD2GI,AOML,Palmer,South
2018-01-06T22:00:28Z,1515276029,2018,22,0,6.917,6.917,-74.491,-140.751,976.4,-0.47,-999.0,yes,yes,no,300234064820320,BD2GI,AOML,Palmer,South
2018-01-06T22:59:31Z,1515279571,2018,23,0,6.958,6.958,-74.4896,-140.7458,976.3,-0.46,-999.0,yes,yes,no,300234064820320,BD2GI,AOML,Palmer,South
2018-01-07T00:00:00Z,1515283200,2018,0,0,7.0,7.0,-74.4874,-140.7486,976.4,-0.47,-999.0,yes,yes,no,300234064820320,BD2GI,AOML,Palmer,South
2018-01-07T01:00:28Z,1515286829,2018,1,0,7.042,7.042,-74.4934,-140.7866,976.5,-0.73,-999.0,yes,yes,no,300234064820320,BD2GI,AOML,Palmer,South
2018-01-07T01:59:31Z,1515290371,2018,2,0,7.083,7.083,-74.5026,-140.8296,976.7,-0.75,-999.0,yes,yes,no,300234064820320,BD2GI,AOML,Palmer,South
2018-01-07T03:00:00Z,1515294000,2018,3,0,7.125,7.125,-74.5098,-140.8704,977.1,-0.36,-999.0,yes,yes,no,300234064820320,BD2GI,AOML,Palmer,South
2018-01-07T04:00:28Z,1515297629,2018,4,0,7.167,7.167,-74.5158,-140.906,977.4,-0.34,-999.0,yes,yes,no,300234064820320,BD2GI,AOML,Palmer,South
2018-01-07T04:59:31Z,1515301171,2018,5,0,7.208,7.208,-74.5216,-140.939,977.8,-0.36,-999.0,yes,yes,no,300234064820320,BD2GI,AOML,Palmer,South
2018-01-07T06:00:00Z,1515304800,2018,6,0,7.25,7.25,-74.5252,-140.9708,978.5,-0.81,-999.0,yes,yes,no,300234064820320,BD2GI,AOML,Palmer,South
2018-01-07T07:00:28Z,1515308429,2018,7,0,7.292,7.292,-74.5258,-140.9952,979.3,-0.94,-999.0,yes,yes,no,300234064820320,BD2GI,AOML,Palmer,South
2018-01-07T07:59:31Z,1515311971,2018,8,0,7.333,7.333,-74.5248,-141.0122,980.2,-0.37,-999.0,yes,yes,no,300234064820320,BD2GI,AOML,Palmer,South
2018-01-07T09:00:00Z,1515315600,2018,9,0,7.375,7.375,-74.5232,-141.0298,981.1,-1.04,-999.0,yes,yes,no,300234064820320,BD2GI,AOML,Palmer,South
2018-01-07T10:00:28Z,1515319229,2018,10,0,7.417,7.417,-74.5208,-141.0408,982.1,-0.39,-999.0,yes,yes,no,300234064820320,BD2GI,AOML,Palmer,South
2018-01-07T10:59:31Z,1515322771,2018,11,0,7.458,7.458,-74.5186,-141.0408,983.6,-0.39,-999.0,yes,yes,no,300234064820320,BD2GI,AOML,Palmer,South
2018-01-07T12:00:00Z,1515326400,2018,12,0,7.5,7.5,-74.5154,-141.045,984.6,-0.39,-999.0,yes,yes,no,300234064820320,BD2GI,AOML,Palmer,South
2018-01-07T13:00:28Z,1515330029,2018,13,0,7.542,7.542,-74.5126,-141.0548,985.7,-0.39,-999.0,yes,yes,no,300234064820320,BD2GI,AOML,Palmer,South
2018-01-07T13:59:31Z,1515333571,2018,14,0,7.583,7.583,-74.5104,-141.0692,986.7,-0.39,-999.0,yes,yes,no,300234064820320,BD2GI,AOML,Palmer,South
2018-01-07T15:00:00Z,1515337200,2018,15,0,7.625,7.625,-74.5098,-141.086,987.6,-0.38,-999.0,yes,yes,no,300234064820320,BD2GI,AOML,Palmer,South
2018-01-07T16:00:28Z,1515340829,2018,16,0,7.667,7.667,-74.5114,-141.1012,988.5,-0.36,-999.0,yes,yes,no,300234064820320,BD2GI,AOML,Palmer,South
2018-01-07T16:59:31Z,1515344371,2018,17,0,7.708,7.708,-74.514,-141.1096,989.5,-0.33,-999.0,yes,yes,no,300234064820320,BD2GI,AOML,Palmer,South
2018-01-07T18:00:00Z,1515348000,2018,18,0,7.75,7.75,-74.5166,-141.112,990.7,-0.3,-999.0,yes,yes,no,300234064820320,BD2GI,AOML,Palmer,South
2018-01-07T19:00:28Z,1515351629,2018,19,0,7.792,7.792,-74.5178,-141.1108,991.6,-0.26,-999.0,yes,yes,no,300234064820320,BD2GI,AOML,Palmer,South
2018-01-07T19:59:31Z,1515355171,2018,20,0,7.833,7.833,-74.5186,-141.1082,992.5,-0.23,-999.0,yes,yes,no,300234064820320,BD2GI,AOML,Palmer,South
2018-01-07T21:00:00Z,1515358800,2018,21,0,7.875,7.875,-74.5178,-141.1062,993.2,-0.12,-999.0,yes,yes,no,300234064820320,BD2GI,AOML,Palmer,South
2018-01-07T22:00:28Z,1515362429,2018,22,0,7.917,7.917,-74.5156,-141.1046,994.0,-0.04,-999.0,yes,yes,no,300234064820320,BD2GI,AOML,Palmer,South
2018-01-07T22:59:31Z,1515365971,2018,23,0,7.958,7.958,-74.5134,-141.1048,995.0,0.12,-999.0,yes,yes,no,300234064820320,BD2GI,AOML,Palmer,South
2018-01-08T00:00:00Z,1515369600,2018,0,0,8.0,8.0,-74.5102,-141.1096,995.6,0.1,-999.0,yes,yes,no,300234064820320,BD2GI,AOML,Palmer,South
2018-01-08T01:00:28Z,1515373229,2018,1,0,8.042,8.042,-74.5076,-141.1194,996.2,0.25,-999.0,yes,yes,no,300234064820320,BD2GI,AOML,Palmer,South
2018-01-08T01:59:31Z,1515376771,2018,2,0,8.083,8.083,-74.5062,-141.1342,996.7,0.16,-999.0,yes,yes,no,300234064820320,BD2GI,AOML,Palmer,South
2018-01-08T03:00:00Z,1515380400,2018,3,0,8.125,8.125,-74.5064,-141.1506,997.4,0.2,-999.0,yes,yes,no,300234064820320,BD2GI,AOML,Palmer,South
2018-01-08T04:00:28Z,1515384029,2018,4,0,8.167,8.167,-74.5076,-141.1644,997.9,0.14,-999.0,yes,yes,no,300234064820320,BD2GI,AOML,Palmer,South
2018-01-08T04:59:31Z,1515387571,2018,5,0,8.208,8.208,-74.5098,-141.1746,998.4,0.06,-999.0,yes,yes,no,300234064820320,BD2GI,AOML,Palmer,South
2018-01-08T06:00:00Z,1515391200,2018,6,0,8.25,8.25,-74.5118,-141.1816,998.8,0.08,-999.0,yes,yes,no,300234064820320,BD2GI,AOML,Palmer,South
2018-01-08T07:00:28Z,1515394829,2018,7,0,8.292,8.292,-74.5138,-141.185,999.1,0.05,-999.0,yes,yes,no,300234064820320,BD2GI,AOML,Palmer,South
2018-01-08T07:59:31Z,1515398371,2018,8,0,8.333,8.333,-74.5152,-141.184,999.5,0.01,-999.0,yes,yes,no,300234064820320,BD2GI,AOML,Palmer,South
2018-01-08T09:00:00Z,1515402000,2018,9,0,8.375,8.375,-74.515,-141.1794,999.7,0.0,-999.0,yes,yes,no,300234064820320,BD2GI,AOML,Palmer,South
2018-01-08T10:00:28Z,1515405629,2018,10,0,8.417,8.417,-74.5132,-141.1778,1000.3,-0.06,-999.0,yes,yes,no,300234064820320,BD2GI,AOML,Palmer,South
2018-01-08T10:59:31Z,1515409171,2018,11,0,8.458,8.458,-74.5106,-141.1794,1000.5,-0.1,-999.0,yes,yes,no,300234064820320,BD2GI,AOML,Palmer,South
2018-01-08T12:00:00Z,1515412800,2018,12,0,8.5,8.5,-74.5074,-141.1866,1000.8,-0.17,-999.0,yes,yes,no,300234064820320,BD2GI,AOML,Palmer,South
2018-01-08T13:00:28Z,1515416429,2018,13,0,8.542,8.542,-74.5044,-141.1964,1000.8,-0.08,-999.0,yes,yes,no,300234064820320,BD2GI,AOML,Palmer,South
2018-01-08T13:59:31Z,1515419971,2018,14,0,8.583,8.583,-74.5026,-141.2112,1000.9,-0.08,-999.0,yes,yes,no,300234064820320,BD2GI,AOML,Palmer,South
2018-01-08T15:00:00Z,1515423600,2018,15,0,8.625,8.625,-74.5012,-141.227,1000.9,-0.08,-999.0,yes,yes,no,300234064820320,BD2GI,AOML,Palmer,South
2018-01-08T16:00:28Z,1515427229,2018,16,0,8.667,8.667,-74.5006,-141.2424,1001.0,-0.11,-999.0,yes,yes,no,300234064820320,BD2GI,AOML,Palmer,South
2018-01-08T16:59:31Z,1515430771,2018,17,0,8.708,8.708,-74.501,-141.2558,1001.2,-0.13,-999.0,yes,yes,no,300234064820320,BD2GI,AOML,Palmer,South
2018-01-08T18:00:00Z,1515434400,2018,18,0,8.75,8.75,-74.5018,-141.267,1001.3,-0.15,-999.0,yes,yes,no,300234064820320,BD2GI,AOML,Palmer,South
2018-01-08T19:00:28Z,1515438029,2018,19,0,8.792,8.792,-74.5026,-141.2714,1001.4,-0.14,-999.0,yes,yes,no,300234064820320,BD2GI,AOML,Palmer,South
2018-01-08T19:59:31Z,1515441571,2018,20,0,8.833,8.833,-74.5016,-141.273,1001.5,-0.11,-999.0,yes,yes,no,300234064820320,BD2GI,AOML,Palmer,South
2018-01-08T21:00:00Z,1515445200,2018,21,0,8.875,8.875,-74.4992,-141.2722,1001.5,-0.06,-999.0,yes,yes,no,300234064820320,BD2GI,AOML,Palmer,South
2018-01-08T22:00:28Z,1515448829,2018,22,0,8.917,8.917,-74.4958,-141.2712,1001.6,0.0,-999.0,yes,yes,no,300234064820320,BD2GI,AOML,Palmer,South
2018-01-08T22:59:31Z,1515452371,2018,23,0,8.958,8.958,-74.4928,-141.274,1001.6,0.0,-999.0,yes,yes,no,300234064820320,BD2GI,AOML,Palmer,South
2018-01-09T00:00:00Z,1515456000,2018,0,0,9.0,9.0,-74.49,-141.2822,1001.6,0.01,-999.0,yes,yes,no,300234064820320,BD2GI,AOML,Palmer,South
2018-01-09T01:00:28Z,1515459629,2018,1,0,9.042,9.042,-74.4878,-141.2938,1001.6,0.07,-999.0,yes,yes,no,300234064820320,BD2GI,AOML,Palmer,South
2018-01-09T01:59:31Z,1515463171,2018,2,0,9.083,9.083,-74.4868,-141.3084,1001.3,0.18,-999.0,yes,yes,no,300234064820320,BD2GI,AOML,Palmer,South
2018-01-09T03:00:00Z,1515466800,2018,3,0,9.125,9.125,-74.4876,-141.3198,1001.4,0.1,-999.0,yes,yes,no,300234064820320,BD2GI,AOML,Palmer,South
2018-01-09T04:00:28Z,1515470429,2018,4,0,9.167,9.167,-74.4894,-141.3296,1001.2,0.04,-999.0,yes,yes,no,300234064820320,BD2GI,AOML,Palmer,South
2018-01-09T04:59:31Z,1515473971,2018,5,0,9.208,9.208,-74.491,-141.3382,1001.1,0.04,-999.0,yes,yes,no,300234064820320,BD2GI,AOML,Palmer,South
2018-01-09T06:00:00Z,1515477600,2018,6,0,9.25,9.25,-74.4922,-141.3424,1001.1,0.0,-999.0,yes,yes,no,300234064820320,BD2GI,AOML,Palmer,South
2018-01-09T07:00:28Z,1515481229,2018,7,0,9.292,9.292,-74.4922,-141.3452,1000.8,0.04,-999.0,yes,yes,no,300234064820320,BD2GI,AOML,Palmer,South
2018-01-09T07:59:31Z,1515484771,2018,8,0,9.333,9.333,-74.4916,-141.3458,1000.3,0.02,-999.0,yes,yes,no,300234064820320,BD2GI,AOML,Palmer,South
2018-01-09T09:00:00Z,1515488400,2018,9,0,9.375,9.375,-74.49,-141.3468,1000.1,0.02,-999.0,yes,yes,no,300234064820320,BD2GI,AOML,Palmer,South
2018-01-09T10:00:28Z,1515492029,2018,10,0,9.417,9.417,-74.4864,-141.3494,999.9,0.0,-999.0,yes,yes,no,300234064820320,BD2GI,AOML,Palmer,South
2018-01-09T10:59:31Z,1515495571,2018,11,0,9.458,9.458,-74.4828,-141.3558,999.8,0.0,-999.0,yes,yes,no,300234064820320,BD2GI,AOML,Palmer,South
2018-01-09T12:00:00Z,1515499200,2018,12,0,9.5,9.5,-74.4792,-141.3672,999.5,0.02,-999.0,yes,yes,no,300234064820320,BD2GI,AOML,Palmer,South
2018-01-09T13:00:28Z,1515502829,2018,13,0,9.542,9.542,-74.4764,-141.3834,999.3,0.02,-999.0,yes,yes,no,300234064820320,BD2GI,AOML,Palmer,South
2018-01-09T13:59:31Z,1515506371,2018,14,0,9.583,9.583,-74.474,-141.4028,999.0,0.03,-999.0,yes,yes,no,300234064820320,BD2GI,AOML,Palmer,South
2018-01-09T15:00:00Z,1515510000,2018,15,0,9.625,9.625,-74.473,-141.4238,998.8,0.05,-999.0,yes,yes,no,300234064820320,BD2GI,AOML,Palmer,South
2018-01-09T16:00:28Z,1515513629,2018,16,0,9.667,9.667,-74.473,-141.4422,998.3,0.04,-999.0,yes,yes,no,300234064820320,BD2GI,AOML,Palmer,South
2018-01-09T16:59:31Z,1515517171,2018,17,0,9.708,9.708,-74.4736,-141.4594,998.2,0.03,-999.0,yes,yes,no,300234064820320,BD2GI,AOML,Palmer,South
2018-01-09T18:00:00Z,1515520800,2018,18,0,9.75,9.75,-74.4748,-141.4706,998.0,0.03,-999.0,yes,yes,no,300234064820320,BD2GI,AOML,Palmer,South
2018-01-09T19:00:28Z,1515524429,2018,19,0,9.792,9.792,-74.475,-141.4782,997.9,0.12,-999.0,yes,yes,no,300234064820320,BD2GI,AOML,Palmer,South
2018-01-09T19:59:31Z,1515527971,2018,20,0,9.833,9.833,-74.4742,-141.4834,997.5,0.13,-999.0,yes,yes,no,300234064820320,BD2GI,AOML,Palmer,South
2018-01-09T21:00:00Z,1515531600,2018,21,0,9.875,9.875,-74.4722,-141.489,997.1,0.17,-999.0,yes,yes,no,300234064820320,BD2GI,AOML,Palmer,South
2018-01-09T22:00:28Z,1515535229,2018,22,0,9.917,9.917,-74.4688,-141.4976,996.7,0.22,-999.0,yes,yes,no,300234064820320,BD2GI,AOML,Palmer,South
2018-01-09T22:59:31Z,1515538771,2018,23,0,9.958,9.958,-74.4646,-141.5104,996.4,0.28,-999.0,yes,yes,no,300234064820320,BD2GI,AOML,Palmer,South
2018-01-10T00:00:00Z,1515542400,2018,0,0,10.0,10.0,-74.4612,-141.5294,996.0,0.28,-999.0,yes,yes,no,300234064820320,BD2GI,AOML,Palmer,South
2018-01-10T01:00:28Z,1515546029,2018,1,0,10.042,10.042,-74.4594,-141.55,995.7,0.25,-999.0,yes,yes,no,300234064820320,BD2GI,AOML,Palmer,South
2018-01-10T01:59:31Z,1515549571,2018,2,0,10.083,10.083,-74.4576,-141.5688,995.1,0.24,-999.0,yes,yes,no,300234064820320,BD2GI,AOML,Palmer,South
2018-01-10T03:00:00Z,1515553200,2018,3,0,10.125,10.125,-74.4558,-141.587,994.6,0.23,-999.0,yes,yes,no,300234064820320,BD2GI,AOML,Palmer,South
2018-01-10T04:00:28Z,1515556829,2018,4,0,10.167,10.167,-74.4544,-141.6032,994.2,0.23,-999.0,yes,yes,no,300234064820320,BD2GI,AOML,Palmer,South
2018-01-10T04:59:31Z,1515560371,2018,5,0,10.208,10.208,-74.4532,-141.6176,993.7,0.2,-999.0,yes,yes,no,300234064820320,BD2GI,AOML,Palmer,South
2018-01-10T06:00:00Z,1515564000,2018,6,0,10.25,10.25,-74.4518,-141.6302,993.4,0.19,-999.0,yes,yes,no,300234064820320,BD2GI,AOML,Palmer,South
2018-01-10T07:00:28Z,1515567629,2018,7,0,10.292,10.292,-74.45,-141.6422,993.1,0.17,-999.0,yes,yes,no,300234064820320,BD2GI,AOML,Palmer,South
2018-01-10T07:59:31Z,1515571171,2018,8,0,10.333,10.333,-74.4484,-141.6532,992.8,0.17,-999.0,yes,yes,no,300234064820320,BD2GI,AOML,Palmer,South
2018-01-10T09:00:00Z,1515574800,2018,9,0,10.375,10.375,-74.4466,-141.6638,992.3,0.12,-999.0,yes,yes,no,300234064820320,BD2GI,AOML,Palmer,South
2018-01-10T10:00:28Z,1515578429,2018,10,0,10.417,10.417,-74.444,-141.673,991.8,0.09,-999.0,yes,yes,no,300234064820320,BD2GI,AOML,Palmer,South
2018-01-10T10:59:31Z,1515581971,2018,11,0,10.458,10.458,-74.4402,-141.6728,991.4,-0.11,-999.0,yes,yes,no,300234064820320,BD2GI,AOML,Palmer,South
2018-01-10T12:00:00Z,1515585600,2018,12,0,10.5,10.5,-74.4372,-141.6818,991.1,0.13,-999.0,yes,yes,no,300234064820320,BD2GI,AOML,Palmer,South
2018-01-10T13:00:28Z,1515589229,2018,13,0,10.542,10.542,-74.4352,-141.6918,990.6,0.16,-999.0,yes,yes,no,300234064820320,BD2GI,AOML,Palmer,South
2018-01-10T13:59:31Z,1515592771,2018,14,0,10.583,10.583,-74.433,-141.7028,990.2,0.13,-999.0,yes,yes,no,300234064820320,BD2GI,AOML,Palmer,South
2018-01-10T15:00:00Z,1515596400,2018,15,0,10.625,10.625,-74.431,-141.7154,989.7,0.03,-999.0,yes,yes,no,300234064820320,BD2GI,AOML,Palmer,South
2018-01-10T16:00:28Z,1515600029,2018,16,0,10.667,10.667,-74.429,-141.7278,989.3,0.08,-999.0,yes,yes,no,300234064820320,BD2GI,AOML,Palmer,South
2018-01-10T16:59:31Z,1515603571,2018,17,0,10.708,10.708,-74.4268,-141.7384,989.0,-0.11,-999.0,yes,yes,no,300234064820320,BD2GI,AOML,Palmer,South
2018-01-10T18:00:00Z,1515607200,2018,18,0,10.75,10.75,-74.4246,-141.7536,988.7,-0.12,-999.0,yes,yes,no,300234064820320,BD2GI,AOML,Palmer,South
2018-01-10T19:00:28Z,1515610829,2018,19,0,10.792,10.792,-74.4226,-141.765,988.3,-0.03,-999.0,yes,yes,no,300234064820320,BD2GI,AOML,Palmer,South
2018-01-10T19:59:31Z,1515614371,2018,20,0,10.833,10.833,-74.4206,-141.7786,987.8,-0.04,-999.0,yes,yes,no,300234064820320,BD2GI,AOML,Palmer,South
2018-01-10T21:00:00Z,1515618000,2018,21,0,10.875,10.875,-74.4202,-141.7908,987.6,-0.22,-999.0,yes,yes,no,300234064820320,BD2GI,AOML,Palmer,South
2018-01-10T22:00:28Z,1515621629,2018,22,0,10.917,10.917,-74.421,-141.801,987.3,-0.02,-999.0,yes,yes,no,300234064820320,BD2GI,AOML,Palmer,South
2018-01-10T22:59:31Z,1515625171,2018,23,0,10.958,10.958,-74.4206,-141.8044,987.0,-0.16,-999.0,yes,yes,no,300234064820320,BD2GI,AOML,Palmer,South
2018-01-11T00:00:00Z,1515628800,2018,0,0,11.0,11.0,-74.4196,-141.8042,986.9,-0.21,-999.0,yes,yes,no,300234064820320,BD2GI,AOML,Palmer,South
2018-01-11T01:00:28Z,1515632429,2018,1,0,11.042,11.042,-74.4176,-141.7978,986.7,-0.17,-999.0,yes,yes,no,300234064820320,BD2GI,AOML,Palmer,South
2018-01-11T01:59:31Z,1515635971,2018,2,0,11.083,11.083,-74.414,-141.792,986.2,0.0,-999.0,yes,yes,no,300234064820320,BD2GI,AOML,Palmer,South
2018-01-11T03:00:00Z,1515639600,2018,3,0,11.125,11.125,-74.4088,-141.7906,985.9,-0.14,-999.0,yes,yes,no,300234064820320,BD2GI,AOML,Palmer,South
2018-01-11T04:00:28Z,1515643229,2018,4,0,11.167,11.167,-74.4038,-141.8002,985.7,0.02,-999.0,yes,yes,no,300234064820320,BD2GI,AOML,Palmer,South
2018-01-11T04:59:31Z,1515646771,2018,5,0,11.208,11.208,-74.3998,-141.8192,985.5,-0.06,-999.0,yes,yes,no,300234064820320,BD2GI,AOML,Palmer,South
2018-01-11T06:00:00Z,1515650400,2018,6,0,11.25,11.25,-74.3968,-141.8452,985.4,0.0,-999.0,yes,yes,no,300234064820320,BD2GI,AOML,Palmer,South
2018-01-11T07:00:28Z,1515654029,2018,7,0,11.292,11.292,-74.3958,-141.8718,985.2,-0.07,-999.0,yes,yes,no,300234064820320,BD2GI,AOML,Palmer,South
2018-01-11T07:59:31Z,1515657571,2018,8,0,11.333,11.333,-74.3968,-141.8942,985.4,-0.17,-999.0,yes,yes,no,300234064820320,BD2GI,AOML,Palmer,South
2018-01-11T09:00:00Z,1515661200,2018,9,0,11.375,11.375,-74.3992,-141.917,985.4,-0.02,-999.0,yes,yes,no,300234064820320,BD2GI,AOML,Palmer,South
2018-01-11T10:00:28Z,1515664829,2018,10,0,11.417,11.417,-74.403,-141.936,985.2,-0.13,-999.0,yes,yes,no,300234064820320,BD2GI,AOML,Palmer,South
2018-01-11T10:59:31Z,1515668371,2018,11,0,11.458,11.458,-74.4072,-141.9452,985.3,0.04,-999.0,yes,yes,no,300234064820320,BD2GI,AOML,Palmer,South
2018-01-11T12:00:00Z,1515672000,2018,12,0,11.5,11.5,-74.4086,-141.953,985.3,0.1,-999.0,yes,yes,no,300234064820320,BD2GI,AOML,Palmer,South
2018-01-11T13:00:28Z,1515675629,2018,13,0,11.542,11.542,-74.4082,-141.963,985.3,0.14,-999.0,yes,yes,no,300234064820320,BD2GI,AOML,Palmer,South
2018-01-11T13:59:31Z,1515679171,2018,14,0,11.583,11.583,-74.4068,-141.9724,985.4,0.13,-999.0,yes,yes,no,300234064820320,BD2GI,AOML,Palmer,South